Language: 


Des rapports , des résumés tant et plus, au choix de chacun....


Données Historiques de Météogheer
Journalier Rapport pour Janvier 12, 2018 Unitée:  Impériale    Métrique   Les deux
Suivant Jour »
Journalier Hebdomadaire Mensuel Annuel Sur mesure
  Max: Min: Moyenne:
Température: 47.8 °F 39.9 °F 43.3 °F
Point de rosée: 48.2 °F 39.2 °F 43.7 °F
Humidité: 98% 98% 98%
Vent: 7.8mph 0mph 0.9mph
Rafales: 7.8mph - -
Vent- - SSE
Pression: 30.3 in 30.2 in -
Pluie: 0 in    
Historical Graphs
 
 
Données tabulaires pour Janvier 12, 2018
Heure Température Point de rosée Pression Vent Vent Rafales Humidité Pluie Taux (Horaire) Conditions
00:00 39.9 °F 39.2 °F 30.2 in Calm   2.5 mph 98% 0.01 in
00:03 39.9 °F 39.2 °F 30.2 in Calm   2.5 mph 98% 0.01 in
00:10 40.1 °F 41 °F 30.2 in Calm     98% 0.01 in
00:13 40.1 °F 41 °F 30.2 in Calm   2.7 mph 98% 0.01 in
00:21 40.1 °F 41 °F 30.2 in Calm   2.7 mph 98% 0.01 in
00:33 40.1 °F 41 °F 30.2 in Calm     98% 0.01 in
00:40 40.1 °F 41 °F 30.2 in Calm   2.5 mph 98% 0 in
00:43 40.1 °F 41 °F 30.2 in Calm   2.5 mph 98% 0 in
00:45 40.1 °F 41 °F 30.2 in Calm   2.5 mph 98% 0 in
00:58 40.3 °F 41 °F 30.2 in Calm   2.2 mph 98% 0 in
01:10 40.3 °F 41 °F 30.2 in Calm   2.2 mph 98% 0 in
01:25 40.5 °F 41 °F 30.2 in NNW 1.3 mph 2.2 mph 98% 0 in
01:31 40.5 °F 41 °F 30.2 in Calm   2.2 mph 98% 0 in
01:37 40.6 °F 41 °F 30.2 in Calm   3.6 mph 98% 0 in
01:43 40.6 °F 41 °F 30.2 in NNW 2 mph 3.6 mph 98% 0 in
01:48 40.6 °F 41 °F 30.2 in Calm   2.9 mph 98% 0 in
01:59 40.8 °F 41 °F 30.2 in Calm   4.3 mph 98% 0 in
02:04 41 °F 41 °F 30.2 in Calm   4.3 mph 98% 0 in
02:21 41.2 °F 41 °F 30.2 in North 4.3 mph 7.8 mph 98% 0 in
02:32 41 °F 41 °F 30.2 in Calm   7.6 mph 98% 0 in
02:38 41 °F 41 °F 30.2 in NNE 0.9 mph 6.5 mph 98% 0 in
02:44 41 °F 41 °F 30.2 in Calm   6.5 mph 98% 0 in
02:56 41 °F 41 °F 30.2 in NE 4.9 mph 6.3 mph 98% 0 in
03:08 41.2 °F 41 °F 30.2 in NNE 3.1 mph 6.5 mph 98% 0 in
03:13 41 °F 41 °F 30.2 in North 5.4 mph 7.4 mph 98% 0 in
03:21 41.2 °F 41 °F 30.2 in NNE 1.3 mph 7.4 mph 98% 0 in
03:29 41.2 °F 41 °F 30.2 in North 3.1 mph 6.3 mph 98% 0 in
03:34 41.2 °F 41 °F 30.2 in NE 7.4 mph 7.4 mph 98% 0 in
03:43 41.4 °F 41 °F 30.2 in NNE 2.2 mph 7.4 mph 98% 0 in
03:50 41.4 °F 41 °F 30.2 in NE 2 mph 4.9 mph 98% 0 in
03:57 41.4 °F 41 °F 30.2 in NNE 3.1 mph 4 mph 98% 0 in
04:04 41.4 °F 41 °F 30.2 in Calm   5.6 mph 98% 0 in
04:14 41.7 °F 42.8 °F 30.2 in Calm   5.8 mph 98% 0 in
04:27 41.7 °F 42.8 °F 30.3 in Calm   6.3 mph 98% 0 in
04:37 41.7 °F 42.8 °F 30.3 in North 3.8 mph 6.5 mph 98% 0 in
04:46 41.9 °F 42.8 °F 30.3 in NNE 7.8 mph 7.8 mph 98% 0 in
04:52 41.9 °F 42.8 °F 30.3 in NNE 5.4 mph 7.8 mph 98% 0 in
04:57 41.9 °F 42.8 °F 30.3 in ENE 4.9 mph 6 mph 98% 0 in
05:02 41.9 °F 42.8 °F 30.3 in Calm   6 mph 98% 0 in
05:12 41.9 °F 42.8 °F 30.3 in NNW 4 mph 5.6 mph 98% 0 in
05:17 41.9 °F 42.8 °F 30.3 in NNE 3.8 mph 5.6 mph 98% 0 in
05:36 42.1 °F 42.8 °F 30.2 in ENE 7.4 mph 7.4 mph 98% 0 in
05:44 42.1 °F 42.8 °F 30.2 in NNE 3.6 mph 7.4 mph 98% 0 in
05:54 42.1 °F 42.8 °F 30.2 in Calm   4.9 mph 98% 0 in
06:02 42.1 °F 42.8 °F 30.2 in Calm   2.2 mph 98% 0 in
06:18 42.1 °F 42.8 °F 30.3 in Calm     98% 0 in
06:30 42.1 °F 42.8 °F 30.3 in Calm   2.9 mph 98% 0 in
06:37 42.1 °F 42.8 °F 30.3 in Calm   2.9 mph 98% 0 in
06:42 42.1 °F 42.8 °F 30.3 in Calm     98% 0 in
06:53 42.3 °F 42.8 °F 30.3 in Calm     98% 0 in
07:09 42.3 °F 42.8 °F 30.3 in Calm   0.9 mph 98% 0 in
07:15 42.3 °F 42.8 °F 30.3 in Calm     98% 0 in
07:22 42.3 °F 42.8 °F 30.3 in Calm   1.1 mph 98% 0 in
07:30 42.3 °F 42.8 °F 30.3 in NNW 2 mph 2.2 mph 98% 0 in
07:36 42.3 °F 42.8 °F 30.3 in NNW 1.1 mph 2.5 mph 98% 0 in
07:44 42.3 °F 42.8 °F 30.2 in Calm   2.5 mph 98% 0 in
07:50 42.3 °F 42.8 °F 30.2 in Calm     98% 0 in
07:55 42.3 °F 42.8 °F 30.2 in Calm     98% 0 in
08:02 42.3 °F 42.8 °F 30.3 in Calm   0.9 mph 98% 0 in
08:11 42.3 °F 42.8 °F 30.3 in Calm   0.9 mph 98% 0 in
08:21 42.3 °F 42.8 °F 30.3 in Calm   1.3 mph 98% 0 in
08:26 42.3 °F 42.8 °F 30.3 in Calm   4 mph 98% 0 in
08:43 42.3 °F 42.8 °F 30.3 in WNW 2.5 mph 4 mph 98% 0 in
08:49 42.4 °F 42.8 °F 30.3 in North 2.2 mph 4.7 mph 98% 0 in
08:54 42.4 °F 42.8 °F 30.3 in Calm   2.5 mph 98% 0 in
09:06 42.4 °F 42.8 °F 30.3 in WNW 2.7 mph 4.3 mph 98% 0 in
09:11 42.4 °F 42.8 °F 30.3 in Calm   4.3 mph 98% 0 in
09:15 42.4 °F 42.8 °F 30.3 in NNW 2.5 mph 4.3 mph 98% 0 in
09:24 42.4 °F 42.8 °F 30.3 in NNW 2.9 mph 4.7 mph 98% 0 in
09:29 42.4 °F 42.8 °F 30.3 in NNW 6.3 mph 6.3 mph 98% 0 in
09:38 42.4 °F 42.8 °F 30.3 in Calm   6.3 mph 98% 0 in
09:46 42.6 °F 42.8 °F 30.3 in Calm   5.4 mph 98% 0 in
09:55 42.6 °F 42.8 °F 30.3 in North 1.6 mph 5.4 mph 98% 0 in
10:05 42.8 °F 42.8 °F 30.3 in Calm   6 mph 98% 0 in
10:12 42.8 °F 42.8 °F 30.3 in NNE 3.8 mph 4.3 mph 98% 0 in
10:22 43 °F 42.8 °F 30.3 in Calm   4.3 mph 98% 0 in
10:27 43.2 °F 42.8 °F 30.3 in Calm   0.9 mph 98% 0 in
10:32 43.3 °F 42.8 °F 30.3 in Calm     98% 0 in
10:47 43.5 °F 42.8 °F 30.3 in Calm   2 mph 98% 0 in
10:52 43.5 °F 42.8 °F 30.3 in Calm   2.2 mph 98% 0 in
11:01 43.7 °F 44.6 °F 30.3 in Calm   2.5 mph 98% 0 in
11:06 43.9 °F 44.6 °F 30.3 in Calm   4.3 mph 98% 0 in
11:11 43.9 °F 44.6 °F 30.3 in NE 3.4 mph 4.3 mph 98% 0 in
11:18 44.1 °F 44.6 °F 30.3 in NE 2.2 mph 4.7 mph 98% 0 in
11:32 44.4 °F 44.6 °F 30.3 in NE 0.9 mph 2.9 mph 98% 0 in
11:38 44.6 °F 44.6 °F 30.3 in Calm   2.9 mph 98% 0 in
11:46 45 °F 44.6 °F 30.3 in NNE 4.3 mph 4.9 mph 98% 0 in
11:53 45.1 °F 44.6 °F 30.3 in Calm   4.7 mph 98% 0 in
12:05 45.1 °F 44.6 °F 30.3 in Calm   4.7 mph 98% 0 in
12:10 45.3 °F 44.6 °F 30.3 in NNE 4.3 mph 4.3 mph 98% 0 in
12:15 45.3 °F 44.6 °F 30.3 in NNE 4 mph 5.8 mph 98% 0 in
12:25 45.9 °F 46.4 °F 30.3 in NNE 2 mph 4.7 mph 98% 0 in
12:30 45.9 °F 46.4 °F 30.3 in North 3.6 mph 3.8 mph 98% 0 in
12:39 46 °F 46.4 °F 30.3 in NNE 3.6 mph 4.9 mph 98% 0 in
12:44 46 °F 46.4 °F 30.3 in Calm   4.9 mph 98% 0 in
12:51 46 °F 46.4 °F 30.3 in Calm   4.5 mph 98% 0 in
12:56 46.2 °F 46.4 °F 30.3 in Calm   2.5 mph 98% 0 in
13:02 46.2 °F 46.4 °F 30.3 in Calm   2.5 mph 98% 0 in
13:07 46.6 °F 46.4 °F 30.3 in Calm   3.1 mph 98% 0 in
13:12 46.9 °F 48.2 °F 30.3 in Calm   3.1 mph 98% 0 in
13:17 46.9 °F 48.2 °F 30.3 in Calm   2.7 mph 98% 0 in
13:35 47.8 °F 48.2 °F 30.3 in Calm   4.3 mph 98% 0 in
13:52 47.8 °F 48.2 °F 30.2 in Calm   4.3 mph 98% 0 in
13:58 47.5 °F 48.2 °F 30.3 in NNE 3.8 mph 6 mph 98% 0 in
14:03 47.3 °F 48.2 °F 30.3 in Calm   6 mph 98% 0 in
14:08 47.1 °F 48.2 °F 30.3 in Calm   5.4 mph 98% 0 in
14:13 47.1 °F 48.2 °F 30.3 in Calm   3.1 mph 98% 0 in
14:21 47.1 °F 48.2 °F 30.3 in East 1.1 mph 2.2 mph 98% 0 in
14:26 47.1 °F 48.2 °F 30.3 in Calm   2.2 mph 98% 0 in
14:42 47.1 °F 48.2 °F 30.3 in Calm   3.6 mph 98% 0 in
14:54 47.1 °F 48.2 °F 30.3 in Calm   1.3 mph 98% 0 in
15:14 46.9 °F 48.2 °F 30.3 in Calm   3.4 mph 98% 0 in
15:21 46.9 °F 48.2 °F 30.3 in Calm     98% 0 in
15:30 46.9 °F 48.2 °F 30.2 in Calm   1.1 mph 98% 0 in
15:33 46.9 °F 48.2 °F 30.2 in Calm   1.1 mph 98% 0 in
15:41 46.9 °F 48.2 °F 30.3 in Calm     98% 0 in
15:46 46.9 °F 48.2 °F 30.3 in Calm     98% 0 in
16:11 46.8 °F 46.4 °F 30.2 in Calm     98% 0 in
16:20 46.6 °F 46.4 °F 30.2 in Calm   1.3 mph 98% 0 in
16:26 46.6 °F 46.4 °F 30.3 in Calm     98% 0 in
16:37 46.4 °F 46.4 °F 30.3 in Calm   0.9 mph 98% 0 in
16:49 46 °F 46.4 °F 30.2 in Calm   0.9 mph 98% 0 in
16:57 46 °F 46.4 °F 30.2 in Calm   2 mph 98% 0 in
17:04 45.9 °F 46.4 °F 30.2 in Calm     98% 0 in
17:11 45.9 °F 46.4 °F 30.2 in Calm   1.3 mph 98% 0 in
17:21 45.7 °F 46.4 °F 30.2 in Calm   0.9 mph 98% 0 in
17:39 45.3 °F 44.6 °F 30.3 in Calm   2.5 mph 98% 0 in
17:48 45.3 °F 44.6 °F 30.3 in Calm   2.2 mph 98% 0 in
17:54 45.3 °F 44.6 °F 30.3 in Calm   2.2 mph 98% 0 in
18:03 45.1 °F 44.6 °F 30.3 in Calm     98% 0 in
18:08 45.1 °F 44.6 °F 30.3 in Calm     98% 0 in
18:14 45.1 °F 44.6 °F 30.3 in Calm     98% 0 in
18:27 45.1 °F 44.6 °F 30.3 in Calm     98% 0 in
18:37 44.8 °F 44.6 °F 30.3 in Calm     98% 0 in
19:06 44.2 °F 44.6 °F 30.2 in Calm     98% 0 in
19:15 44.1 °F 44.6 °F 30.3 in Calm     98% 0 in
19:35 43.7 °F 44.6 °F 30.2 in Calm     98% 0 in
19:41 43.7 °F 44.6 °F 30.3 in Calm     98% 0 in
19:47 43.7 °F 44.6 °F 30.3 in Calm     98% 0 in
19:52 43.7 °F 44.6 °F 30.3 in Calm     98% 0 in
20:02 43.7 °F 44.6 °F 30.3 in Calm     98% 0 in
20:13 43.5 °F 42.8 °F 30.3 in Calm     98% 0 in
20:20 43.3 °F 42.8 °F 30.3 in Calm   0.9 mph 98% 0 in
20:44 43 °F 42.8 °F 30.3 in Calm   2 mph 98% 0 in
20:54 43 °F 42.8 °F 30.3 in Calm   2.9 mph 98% 0 in
21:01 43 °F 42.8 °F 30.3 in ESE 1.6 mph 4.3 mph 98% 0 in
21:07 43 °F 42.8 °F 30.3 in Calm   2.9 mph 98% 0 in
21:15 43.2 °F 42.8 °F 30.3 in Calm   3.1 mph 98% 0 in
21:25 43.2 °F 42.8 °F 30.3 in Calm   3.1 mph 98% 0 in
21:30 43.2 °F 42.8 °F 30.3 in Calm   3.1 mph 98% 0 in
21:35 43.2 °F 42.8 °F 30.3 in Calm   2.9 mph 98% 0 in
21:40 43.2 °F 42.8 °F 30.3 in Calm     98% 0 in
21:45 43.2 °F 42.8 °F 30.3 in Calm   3.6 mph 98% 0 in
22:07 43 °F 42.8 °F 30.3 in Calm     98% 0 in
22:15 43 °F 42.8 °F 30.2 in Calm     98% 0 in
22:25 41.2 °F 41 °F 30.2 in Calm     98% 0 in
22:37 41.2 °F 41 °F 30.3 in Calm     98% 0 in
23:01 41.2 °F 41 °F 30.3 in Calm     98% 0 in
23:06 41.2 °F 41 °F 30.3 in Calm     98% 0 in
23:16 41.2 °F 41 °F 30.3 in Calm     98% 0 in
23:21 41.2 °F 41 °F 30.3 in Calm     98% 0 in
23:28 41.2 °F 41 °F 30.3 in Calm     98% 0 in
Données Historique de Météo Turbie

Mise a jour : 20/05/2018 16:04:12
Généré par Cumulus 1.9.4 (1099)